Find Starlink 31341

NORAD ID: 59155 Int'l Des: 2024-044 Owner: SPXS Country: US Constellation: starlink operational
LEOCIRCULAR

Current View

Loading 3D Globe...

About Starlink 31341

Starlink 31341 (NORAD 59155) is a starlink constellation satellite (v2 mini) launched Mar 4, 2024 by SPXS of US. It operates in LEO, CIRCULAR orbit with a mass of 730.00 kg.

About Starlink 31341

Description loading...

Upcoming Passes

Passes for default location (London). Set your location on the main map for personalized predictions.

Altitude History

Loading altitude history...

Two-Line Element Set

1 59155U 24044D 26165.59977283 .00001073 00000-0 48489-4 0 9997
2 59155 43.0001 283.4438 0001112 252.4511 107.6219 15.27580189128342
Epoch: Jun 14, 2026 • Age: 25 hours

Current Status

Altitude 495.4 km
Velocity 7.62 km/s
Sub-Earth Point -42.45°S, 69.11°E
Launch Date Mar 4, 2024
Age 2.2 years
Type internet

Technical Details

Classification Payload
Mass 730.00 kg
Dry Mass 700.00 kg
Total Mass 730.00 kg
Length 0.30 m
Diameter 4.10 m
Span 29.00 m
Shape Box + pan
Manufacturer SPXS
Bus Type Starlink V2M
Phase Status In Orbit
Owner/State SPXS/US

Most Searched